Location: L�Ave Maria
(50.7161°N, 1.5911°E)
Time: 23:55:17
(UTC+00:00)

CREW DRAGON DEMO-1 DEB - Pass Details

Date: 10 July 2020
Orbit: 368 x 372 km, 51.6° (Epoch: 14 August)

Event Time Altitude Azimuth Distance (km) Brightness Sun altitude
Rises 21:48:37 0° 245° (WSW) 2,223 6.8 -11.7°
Reaches altitude 10° 21:50:40 10° 243° (WSW) 1,374 5.7 -11.9°
Maximum altitude 21:53:42 65° 160° (SSE) 412 2.7 -12.1°
Drops below altitude 10° 21:56:45 10° 78° (ENE) 1,374 5.5 -12.4°
Sets 21:58:48 0° 76° (ENE) 2,223 6.6 -12.5°
